Tracking 18984 objects as of 24-Feb-2018
HD Live streaming from Space Station
objects crossing your sky now

FENGYUN 1C DEB

Track FENGYUN 1C DEB now!
10-day predictions


NORAD ID: 31389
Int'l Code: 1999-025BSV
Perigee: 813.2 km
Apogee: 898.3 km
Inclination: 99.1 °
Period: 101.9 minutes
Semi major axis: 7226 km
RCS: 0.0064 m2 (small)
Launch date: May 10, 1999
Source: People's Republic of China (PRC)
Launch site: Taiyaun Space Center, China (TSC)

Note: This is SATELLITE DEBRIS
aabbcc
Your satellite tracking list
Your tracking list is empty




NASA's NSSDC Master Catalog

Two Line Element Set (TLE):
1 31389U 99025BSV 18054.61163753 +.00001074 +00000-0 +58898-3 0  9992
2 31389 099.0883 099.9125 0058882 062.6083 090.5207 14.13154466559821
Source of the keplerian elements: AFSPC